This demonstration page uses our WeatherBlox Daily Observations layout. Learn more.

Left ArrowRight Arrow

40.92945, -100.16068

Hourly Observations for December 5, 2021

Temp ( °F °C ) Dew Point ( °F °C ) Humidity (%) Winds ( mph kmh ) Pressure ( in mb ) Visibility ( mi km ) Precip ( " mm )
12:15 am 00:15 Clear 36 2 31 -0.6 83 83 SSE 13 20 29.91 1013 10 16 0.00 0.00
12:35 am 00:35 Clear 37 2.8 32 -0.2 81 81 S 9 15 29.90 1012 10 16 0.00 0.00
12:55 am 00:55 Clear 37 2.8 31 -0.4 80 80 S 14 22 29.87 1011 10 16 0.00 0.00
1:15 am 01:15 Clear 37 2.8 32 -0.2 81 81 S 13 20 29.85 1011 10 16 0.00 0.00
1:35 am 01:35 Clear 37 2.5 32 -0.2 83 83 S 10 17 29.85 1011 10 16 0.00 0.00
1:55 am 01:55 Clear 37 2.9 32 -0.1 81 81 S 9 15 29.84 1010 10 16 0.00 0.00
2:15 am 02:15 Clear 38 3.5 32 0.1 79 79 S 13 20 29.81 1010 10 16 0.00 0.00
2:35 am 02:35 Clear 39 3.7 33 0.3 79 79 SSW 10 17 29.80 1009 10 16 0.00 0.00
2:55 am 02:55 Clear 39 3.8 33 0.4 79 79 SSW 6 9 29.80 1009 10 16 0.00 0.00
3:15 am 03:15 Clear 38 3.6 33 0.5 80 80 SSW 6 9 29.79 1009 10 16 0.00 0.00
3:35 am 03:35 Clear 38 3.5 33 0.5 81 81 SSW 8 13 29.77 1008 10 16 0.00 0.00
3:55 am 03:55 Clear 38 3.5 33 0.5 81 81 SSW 9 15 29.76 1008 10 16 0.00 0.00
4:15 am 04:15 Clear 38 3.3 33 0.4 82 82 SW 10 17 29.74 1007 10 16 0.00 0.00
4:35 am 04:35 Clear 37 3 32 0.1 81 81 SSW 8 13 29.73 1007 10 16 0.00 0.00
4:55 am 04:55 Clear 36 2.1 32 0 86 86 SW 6 9 29.74 1007 10 16 0.00 0.00
5:15 am 05:15 Clear 33 0.7 30 -1 89 89 WSW 7 11 29.74 1007 10 16 0.00 0.00
5:35 am 05:35 Clear 34 1 31 -0.8 88 88 WSW 6 9 29.73 1007 10 16 0.00 0.00
5:55 am 05:55 Clear 32 0.1 30 -1.2 91 91 W 7 11 29.75 1008 10 16 0.00 0.00
6:15 am 06:15 Clear 31 -0.4 29 -1.6 92 92 WNW 10 17 29.78 1008 10 16 0.00 0.00
6:35 am 06:35 Clear 30 -0.9 28 -2.1 92 92 WNW 7 11 29.78 1009 10 16 0.00 0.00
6:55 am 06:55 Clear 30 -1 28 -2.1 92 92 W 6 9 29.79 1009 10 16 0.00 0.00
7:15 am 07:15 Clear 29 -1.7 27 -2.8 92 92 W 8 13 29.79 1009 10 16 0.00 0.00
7:35 am 07:35 Clear 30 -1.1 28 -2 94 94 WNW 8 13 29.80 1009 10 16 0.00 0.00
7:55 am 07:55 Sunny 31 -0.5 28 -2 90 90 WNW 8 13 29.80 1009 10 16 0.00 0.00
8:15 am 08:15 Sunny 32 0 29 -1.5 90 90 WNW 7 11 29.80 1009 10 16 0.00 0.00
8:35 am 08:35 Sunny 34 1.1 31 -0.6 89 89 WNW 9 15 29.80 1009 10 16 0.00 0.00
8:55 am 08:55 Sunny 35 1.7 32 -0.2 87 87 W 6 9 29.79 1009 10 16 0.00 0.00
9:15 am 09:15 Sunny 37 2.6 32 0 83 83 WNW 9 15 29.78 1008 10 16 0.00 0.00
9:35 am 09:35 Sunny 39 4.1 33 0.6 78 78 WNW 7 11 29.77 1008 10 16 0.00 0.00
9:55 am 09:55 Sunny 41 5.2 33 0.8 74 74 WNW 9 15 29.78 1008 10 16 0.00 0.00
10:15 am 10:15 Sunny 46 7.7 33 0.6 61 61 NNW 9 15 29.76 1008 10 16 0.00 0.00
10:35 am 10:35 Sunny 49 9.6 32 -0.2 51 51 NNW 13 20 29.76 1008 10 16 0.00 0.00
10:55 am 10:55 Sunny 49 9.6 30 -1.3 47 47 N 15 24 29.76 1008 10 16 0.00 0.00
11:15 am 11:15 Sunny 51 10.5 29 -1.9 42 42 N 17 28 29.77 1008 10 16 0.00 0.00
11:35 am 11:35 Sunny 52 10.9 28 -2.2 40 40 N 18 30 29.75 1008 10 16 0.00 0.00
11:55 am 11:55 Sunny 51 10.7 25 -3.9 36 36 N 23 37 29.76 1008 10 16 0.00 0.00
12:15 pm 12:15 Sunny 51 10.8 24 -4.7 34 34 N 18 30 29.74 1007 10 16 0.00 0.00
12:35 pm 12:35 Sunny 52 11 21 -5.9 30 30 N 20 31 29.74 1007 10 16 0.00 0.00
12:55 pm 12:55 Sunny 52 10.9 22 -5.4 32 32 N 22 35 29.75 1008 10 16 0.00 0.00
1:15 pm 13:15 Sunny 51 10.5 23 -5.2 33 33 N 24 39 29.77 1008 10 16 0.00 0.00
1:35 pm 13:35 Sunny 51 10.6 22 -5.5 32 32 N 24 39 29.78 1008 10 16 0.00 0.00
1:55 pm 13:55 Sunny 50 9.8 19 -7 30 30 N 26 43 29.79 1009 10 16 0.00 0.00
2:15 pm 14:15 Sunny 47 8.5 20 -6.8 33 33 N 26 43 29.83 1010 10 16 0.00 0.00
2:35 pm 14:35 Sunny 47 8.1 20 -6.5 35 35 N 25 41 29.84 1010 10 16 0.00 0.00
2:55 pm 14:55 Sunny 45 7.4 23 -4.9 42 42 NNW 29 46 29.87 1011 10 16 0.00 0.00
3:15 pm 15:15 Sunny 43 6.1 23 -5.2 45 45 NNW 35 56 29.92 1013 10 16 0.00 0.00
3:35 pm 15:35 Sunny 42 5.3 22 -5.8 45 45 NNW 32 52 29.94 1014 10 16 0.00 0.00
3:55 pm 15:55 Sunny 41 5.2 21 -6.3 44 44 NNW 35 56 29.97 1015 10 16 0.00 0.00
4:15 pm 16:15 Mostly Cloudy 41 5 20 -6.5 44 44 NNW 28 44 29.97 1015 10 16 0.00 0.00
4:35 pm 16:35 Mostly Cloudy 40 4.7 19 -7 43 43 NNW 21 33 29.99 1016 10 16 0.00 0.00
4:55 pm 16:55 Cloudy 40 4.4 19 -7 44 44 NW 21 33 30.02 1017 10 16 0.00 0.00
5:15 pm 17:15 Cloudy 40 4.5 18 -7.8 41 41 NNW 24 39 30.01 1016 10 16 0.00 0.00
5:35 pm 17:35 Cloudy 40 4.3 17 -8.5 39 39 NW 22 35 30.03 1017 10 16 0.00 0.00
5:55 pm 17:55 Cloudy 39 4 17 -8.5 40 40 NW 18 30 30.05 1018 10 16 0.00 0.00
6:15 pm 18:15 Cloudy 38 3.3 17 -8.3 43 43 NW 14 22 30.08 1019 10 16 0.00 0.00
6:35 pm 18:35 Mostly Cloudy 37 2.5 17 -8.5 44 44 WNW 14 22 30.11 1020 10 16 0.00 0.00
6:55 pm 18:55 Partly Cloudy 35 1.7 19 -7.4 51 51 WNW 15 24 30.13 1020 10 16 0.00 0.00
7:15 pm 19:15 Clear 34 1 19 -7.1 55 55 NW 14 22 30.15 1021 10 16 0.00 0.00
7:35 pm 19:35 Clear 33 0.6 16 -9 49 49 N 20 31 30.18 1022 10 16 0.00 0.00
7:55 pm 19:55 Partly Cloudy 33 0.5 15 -9.2 49 49 N 22 35 30.20 1023 10 16 0.00 0.00
8:15 pm 20:15 Mostly Cloudy 33 0.3 14 -9.8 47 47 NNW 17 28 30.22 1024 10 16 0.00 0.00
8:35 pm 20:35 Partly Cloudy 31 -0.3 14 -10.2 48 48 NNW 15 24 30.24 1024 10 16 0.00 0.00
8:55 pm 20:55 Clear 30 -0.9 14 -10.2 50 50 NNW 13 20 30.26 1025 10 16 0.00 0.00
9:15 pm 21:15 Clear 32 -0.2 13 -10.5 46 46 NNW 24 39 30.26 1025 10 16 0.00 0.00
9:35 pm 21:35 Clear 31 -0.6 14 -10 49 49 NNW 15 24 30.28 1026 10 16 0.00 0.00
9:55 pm 21:55 Clear 31 -0.7 14 -10 50 50 NNW 20 31 30.28 1026 10 16 0.00 0.00
10:15 pm 22:15 Partly Cloudy 30 -0.9 14 -10.1 50 50 NNW 25 41 30.31 1026 10 16 0.00 0.00
10:35 pm 22:35 Mostly Cloudy 31 -0.8 14 -10.1 50 50 NNW 20 31 30.31 1026 10 16 0.00 0.00
10:55 pm 22:55 Partly Cloudy 29 -1.5 14 -10 53 53 NNW 18 30 30.32 1027 10 16 0.00 0.00
11:15 pm 23:15 Partly Cloudy 29 -1.7 13 -10.3 52 52 NNW 20 31 30.32 1027 10 16 0.00 0.00
11:35 pm 23:35 Partly Cloudy 29 -1.8 14 -9.8 55 55 NNW 21 33 30.34 1027 10 16 0.00 0.00
11:55 pm 23:55 Partly Cloudy 28 -2 15 -9.6 56 56 NNW 21 33 30.35 1028 10 16 0.00 0.00

Powered by AerisWeather